Year,Month,Day,Hour,Minute,Value (Times are PST for temperature in C)
2012,07,08,00,00,19.50
2012,07,08,00,01,19.50
2012,07,08,00,02,19.50
2012,07,08,00,03,19.50
2012,07,08,00,04,19.50
2012,07,08,00,05,19.50
2012,07,08,00,06,19.60
2012,07,08,00,07,19.60
2012,07,08,00,08,19.60
2012,07,08,00,09,19.60
2012,07,08,00,10,19.60
2012,07,08,00,11,19.60
2012,07,08,00,12,19.60
2012,07,08,00,13,19.60
2012,07,08,00,14,19.60
2012,07,08,00,15,19.60
2012,07,08,00,16,19.60
2012,07,08,00,17,19.60
2012,07,08,00,18,19.60
2012,07,08,00,19,19.60
2012,07,08,00,20,19.60
2012,07,08,00,21,19.60
2012,07,08,00,22,19.60
2012,07,08,00,23,19.60
2012,07,08,00,24,19.60
2012,07,08,00,25,19.60
2012,07,08,00,26,19.60
2012,07,08,00,27,19.70
2012,07,08,00,28,19.70
2012,07,08,00,29,19.70
2012,07,08,00,30,19.70
2012,07,08,00,31,19.70
2012,07,08,00,32,19.70
2012,07,08,00,33,19.70
2012,07,08,00,34,19.70
2012,07,08,00,35,19.70
2012,07,08,00,36,19.70
2012,07,08,00,37,19.70
2012,07,08,00,38,19.70
2012,07,08,00,39,19.70
2012,07,08,00,40,19.70
2012,07,08,00,41,19.70
2012,07,08,00,42,19.70
2012,07,08,00,43,19.70
2012,07,08,00,44,19.70
2012,07,08,00,45,19.70
2012,07,08,00,46,19.70
2012,07,08,00,47,19.70
2012,07,08,00,48,19.70
2012,07,08,00,49,19.70
2012,07,08,00,50,19.70
2012,07,08,00,51,19.60
2012,07,08,00,52,19.60
2012,07,08,00,53,19.60
2012,07,08,00,54,19.50
2012,07,08,00,55,19.50
2012,07,08,00,56,19.50
2012,07,08,00,57,19.40
2012,07,08,00,58,19.40
2012,07,08,00,59,19.40
2012,07,08,01,00,19.40
2012,07,08,01,01,19.40
2012,07,08,01,02,19.40
2012,07,08,01,03,19.40
2012,07,08,01,04,19.30
2012,07,08,01,05,19.30
2012,07,08,01,06,19.30
2012,07,08,01,07,19.20
2012,07,08,01,08,19.20
2012,07,08,01,09,19.10
2012,07,08,01,10,19.10
2012,07,08,01,11,19.10
2012,07,08,01,12,19.10
2012,07,08,01,13,19.00
2012,07,08,01,14,18.90
2012,07,08,01,15,18.90
2012,07,08,01,16,18.90
2012,07,08,01,17,18.90
2012,07,08,01,18,18.90
2012,07,08,01,19,18.80
2012,07,08,01,20,18.80
2012,07,08,01,21,18.80
2012,07,08,01,22,18.80
2012,07,08,01,23,18.80
2012,07,08,01,24,18.80
2012,07,08,01,25,18.80
2012,07,08,01,26,18.80
2012,07,08,01,27,18.80
2012,07,08,01,28,18.80
2012,07,08,01,29,18.80
2012,07,08,01,30,18.80
2012,07,08,01,31,18.80
2012,07,08,01,32,18.80
2012,07,08,01,33,18.70
2012,07,08,01,34,18.70
2012,07,08,01,35,18.70
2012,07,08,01,36,18.60
2012,07,08,01,37,18.60
2012,07,08,01,38,18.60
2012,07,08,01,39,18.50
2012,07,08,01,40,18.50
2012,07,08,01,41,18.40
2012,07,08,01,42,18.40
2012,07,08,01,43,18.30
2012,07,08,01,44,18.30
2012,07,08,01,45,18.20
2012,07,08,01,46,18.20
2012,07,08,01,47,18.20
2012,07,08,01,48,18.20
2012,07,08,01,49,18.20
2012,07,08,01,50,18.20
2012,07,08,01,51,18.20
2012,07,08,01,52,18.10
2012,07,08,01,53,18.10
2012,07,08,01,54,18.10
2012,07,08,01,55,18.10
2012,07,08,01,56,18.10
2012,07,08,01,57,18.10
2012,07,08,01,58,18.10
2012,07,08,01,59,18.10
2012,07,08,02,00,18.20
2012,07,08,02,01,18.20
2012,07,08,02,02,18.20
2012,07,08,02,03,18.20
2012,07,08,02,04,18.20
2012,07,08,02,05,18.20
2012,07,08,02,06,18.20
2012,07,08,02,07,18.30
2012,07,08,02,08,18.30
2012,07,08,02,09,18.30
2012,07,08,02,10,18.40
2012,07,08,02,11,18.40
2012,07,08,02,12,18.40
2012,07,08,02,13,18.40
2012,07,08,02,14,18.30
2012,07,08,02,15,18.30
2012,07,08,02,16,18.30
2012,07,08,02,17,18.30
2012,07,08,02,18,18.20
2012,07,08,02,19,18.20
2012,07,08,02,20,18.20
2012,07,08,02,21,18.20
2012,07,08,02,22,18.20
2012,07,08,02,23,18.20
2012,07,08,02,24,18.10
2012,07,08,02,25,18.10
2012,07,08,02,26,18.10
2012,07,08,02,27,18.00
2012,07,08,02,28,17.90
2012,07,08,02,29,17.90
2012,07,08,02,30,17.90
2012,07,08,02,31,17.90
2012,07,08,02,32,17.90
2012,07,08,02,33,17.90
2012,07,08,02,34,17.90
2012,07,08,02,35,17.90
2012,07,08,02,36,17.90
2012,07,08,02,37,17.90
2012,07,08,02,38,17.90
2012,07,08,02,39,17.90
2012,07,08,02,40,17.90
2012,07,08,02,41,17.90
2012,07,08,02,42,17.90
2012,07,08,02,43,17.90
2012,07,08,02,44,17.90
2012,07,08,02,45,17.90
2012,07,08,02,46,17.80
2012,07,08,02,47,17.80
2012,07,08,02,48,17.80
2012,07,08,02,49,17.80
2012,07,08,02,50,17.70
2012,07,08,02,51,17.70
2012,07,08,02,52,17.70
2012,07,08,02,53,17.70
2012,07,08,02,54,17.70
2012,07,08,02,55,17.70
2012,07,08,02,56,17.70
2012,07,08,02,57,17.70
2012,07,08,02,58,17.70
2012,07,08,02,59,17.70
2012,07,08,03,00,17.70
2012,07,08,03,01,17.70
2012,07,08,03,02,17.70
2012,07,08,03,03,17.60
2012,07,08,03,04,17.60
2012,07,08,03,05,17.60
2012,07,08,03,06,17.60
2012,07,08,03,07,17.60
2012,07,08,03,08,17.60
2012,07,08,03,09,17.60
2012,07,08,03,10,17.60
2012,07,08,03,11,17.60
2012,07,08,03,12,17.60
2012,07,08,03,13,17.70
2012,07,08,03,14,17.70
2012,07,08,03,15,17.80
2012,07,08,03,16,17.80
2012,07,08,03,17,17.90
2012,07,08,03,18,17.90
2012,07,08,03,19,17.90
2012,07,08,03,20,17.90
2012,07,08,03,21,17.90
2012,07,08,03,22,17.90
2012,07,08,03,23,17.90
2012,07,08,03,24,17.90
2012,07,08,03,25,17.90
2012,07,08,03,26,17.90
2012,07,08,03,27,17.90
2012,07,08,03,28,18.00
2012,07,08,03,29,18.10
2012,07,08,03,30,18.10
2012,07,08,03,31,18.10
2012,07,08,03,32,18.10
2012,07,08,03,33,18.10
2012,07,08,03,34,18.20
2012,07,08,03,35,18.10
2012,07,08,03,36,18.10
2012,07,08,03,37,18.10
2012,07,08,03,38,18.10
2012,07,08,03,39,18.10
2012,07,08,03,40,18.10
2012,07,08,03,41,18.00
2012,07,08,03,42,17.90
2012,07,08,03,43,17.90
2012,07,08,03,44,17.90
2012,07,08,03,45,17.90
2012,07,08,03,46,17.90
2012,07,08,03,47,17.90
2012,07,08,03,48,17.90
2012,07,08,03,49,17.90
2012,07,08,03,50,17.90
2012,07,08,03,51,17.90
2012,07,08,03,52,17.90
2012,07,08,03,53,17.90
2012,07,08,03,54,17.80
2012,07,08,03,55,17.80
2012,07,08,03,56,17.80
2012,07,08,03,57,17.80
2012,07,08,03,58,17.80
2012,07,08,03,59,17.70
2012,07,08,04,00,17.70
2012,07,08,04,01,17.70
2012,07,08,04,02,17.70
2012,07,08,04,03,17.70
2012,07,08,04,04,17.60
2012,07,08,04,05,17.60
2012,07,08,04,06,17.60
2012,07,08,04,07,17.60
2012,07,08,04,08,17.50
2012,07,08,04,09,17.50
2012,07,08,04,10,17.50
2012,07,08,04,11,17.50
2012,07,08,04,12,17.50
2012,07,08,04,13,17.40
2012,07,08,04,14,17.40
2012,07,08,04,15,17.40
2012,07,08,04,16,17.30
2012,07,08,04,17,17.30
2012,07,08,04,18,17.30
2012,07,08,04,19,17.30
2012,07,08,04,20,17.30
2012,07,08,04,21,17.30
2012,07,08,04,22,17.30
2012,07,08,04,23,17.30
2012,07,08,04,24,17.30
2012,07,08,04,25,17.30
2012,07,08,04,26,17.30
2012,07,08,04,27,17.30
2012,07,08,04,28,17.30
2012,07,08,04,29,17.30
2012,07,08,04,30,17.20
2012,07,08,04,31,17.20
2012,07,08,04,32,17.20
2012,07,08,04,33,17.20
2012,07,08,04,34,17.20
2012,07,08,04,35,17.20
2012,07,08,04,36,17.20
2012,07,08,04,37,17.20
2012,07,08,04,38,17.10
2012,07,08,04,39,17.10
2012,07,08,04,40,17.10
2012,07,08,04,41,17.10
2012,07,08,04,42,17.10
2012,07,08,04,43,17.10
2012,07,08,04,44,17.00
2012,07,08,04,45,17.00
2012,07,08,04,46,17.00
2012,07,08,04,47,17.00
2012,07,08,04,48,16.90
2012,07,08,04,49,16.90
2012,07,08,04,50,16.90
2012,07,08,04,51,16.90
2012,07,08,04,52,16.90
2012,07,08,04,53,16.80
2012,07,08,04,54,16.80
2012,07,08,04,55,16.80
2012,07,08,04,56,16.70
2012,07,08,04,57,16.70
2012,07,08,04,58,16.70
2012,07,08,04,59,16.70
2012,07,08,05,00,16.70
2012,07,08,05,01,16.70
2012,07,08,05,02,16.70
2012,07,08,05,03,16.70
2012,07,08,05,04,16.70
2012,07,08,05,05,16.70
2012,07,08,05,06,16.70
2012,07,08,05,07,16.70
2012,07,08,05,08,16.70
2012,07,08,05,09,16.70
2012,07,08,05,10,16.70
2012,07,08,05,11,16.70
2012,07,08,05,12,16.70
2012,07,08,05,13,16.70
2012,07,08,05,14,16.70
2012,07,08,05,15,16.70
2012,07,08,05,16,16.70
2012,07,08,05,17,16.70
2012,07,08,05,18,16.70
2012,07,08,05,19,16.70
2012,07,08,05,20,16.70
2012,07,08,05,21,16.70
2012,07,08,05,22,16.70
2012,07,08,05,23,16.70
2012,07,08,05,24,16.70
2012,07,08,05,25,16.70
2012,07,08,05,26,16.70
2012,07,08,05,27,16.70
2012,07,08,05,28,16.70
2012,07,08,05,29,16.60
2012,07,08,05,30,16.60
2012,07,08,05,31,16.60
2012,07,08,05,32,16.60
2012,07,08,05,33,16.60
2012,07,08,05,34,16.60
2012,07,08,05,35,16.50
2012,07,08,05,36,16.40
2012,07,08,05,37,16.40
2012,07,08,05,38,16.40
2012,07,08,05,39,16.40
2012,07,08,05,40,16.40
2012,07,08,05,41,16.40
2012,07,08,05,42,16.40
2012,07,08,05,43,16.40
2012,07,08,05,44,16.40
2012,07,08,05,45,16.40
2012,07,08,05,46,16.40
2012,07,08,05,47,16.40
2012,07,08,05,48,16.40
2012,07,08,05,49,16.40
2012,07,08,05,50,16.40
2012,07,08,05,51,16.30
2012,07,08,05,52,16.30
2012,07,08,05,53,16.30
2012,07,08,05,54,16.30
2012,07,08,05,55,16.20
2012,07,08,05,56,16.20
2012,07,08,05,57,16.20
2012,07,08,05,58,16.20
2012,07,08,05,59,16.10
2012,07,08,06,00,16.10
2012,07,08,06,01,16.10
2012,07,08,06,02,16.10
2012,07,08,06,03,16.10
2012,07,08,06,04,16.10
2012,07,08,06,05,16.10
2012,07,08,06,06,16.10
2012,07,08,06,07,16.10
2012,07,08,06,08,16.10
2012,07,08,06,09,16.00
2012,07,08,06,10,15.90
2012,07,08,06,11,16.00
2012,07,08,06,12,16.10
2012,07,08,06,13,16.10
2012,07,08,06,14,16.10
2012,07,08,06,15,16.10
2012,07,08,06,16,16.10
2012,07,08,06,17,16.10
2012,07,08,06,18,16.10
2012,07,08,06,19,16.10
2012,07,08,06,20,16.10
2012,07,08,06,21,16.10
2012,07,08,06,22,16.10
2012,07,08,06,23,16.10
2012,07,08,06,24,16.10
2012,07,08,06,25,16.10
2012,07,08,06,26,16.10
2012,07,08,06,27,16.20
2012,07,08,06,28,16.20
2012,07,08,06,29,16.20
2012,07,08,06,30,16.30
2012,07,08,06,31,16.30
2012,07,08,06,32,16.30
2012,07,08,06,33,16.40
2012,07,08,06,34,16.40
2012,07,08,06,35,16.40
2012,07,08,06,36,16.40
2012,07,08,06,37,16.50
2012,07,08,06,38,16.60
2012,07,08,06,39,16.60
2012,07,08,06,40,16.60
2012,07,08,06,41,16.70
2012,07,08,06,42,16.70
2012,07,08,06,43,16.70
2012,07,08,06,44,16.70
2012,07,08,06,45,16.70
2012,07,08,06,46,16.70
2012,07,08,06,47,16.80
2012,07,08,06,48,16.80
2012,07,08,06,49,16.80
2012,07,08,06,50,16.80
2012,07,08,06,51,16.90
2012,07,08,06,52,16.90
2012,07,08,06,53,16.90
2012,07,08,06,54,16.90
2012,07,08,06,55,17.00
2012,07,08,06,56,17.00
2012,07,08,06,57,17.00
2012,07,08,06,58,17.10
2012,07,08,06,59,17.10
2012,07,08,07,00,17.20
2012,07,08,07,01,17.20
2012,07,08,07,02,17.30
2012,07,08,07,03,17.30
2012,07,08,07,04,17.30
2012,07,08,07,05,17.40
2012,07,08,07,06,17.40
2012,07,08,07,07,17.50
2012,07,08,07,08,17.50
2012,07,08,07,09,17.50
2012,07,08,07,10,17.60
2012,07,08,07,11,17.60
2012,07,08,07,12,17.60
2012,07,08,07,13,17.70
2012,07,08,07,14,17.70
2012,07,08,07,15,17.70
2012,07,08,07,16,17.70
2012,07,08,07,17,17.80
2012,07,08,07,18,17.80
2012,07,08,07,19,17.80
2012,07,08,07,20,17.80
2012,07,08,07,21,17.80
2012,07,08,07,22,17.80
2012,07,08,07,23,17.80
2012,07,08,07,24,17.80
2012,07,08,07,25,17.80
2012,07,08,07,26,17.80
2012,07,08,07,27,17.80
2012,07,08,07,28,17.80
2012,07,08,07,29,17.80
2012,07,08,07,30,17.90
2012,07,08,07,31,17.90
2012,07,08,07,32,17.90
2012,07,08,07,33,18.00
2012,07,08,07,34,18.10
2012,07,08,07,35,18.20
2012,07,08,07,36,18.20
2012,07,08,07,37,18.20
2012,07,08,07,38,18.20
2012,07,08,07,39,18.20
2012,07,08,07,40,18.20
2012,07,08,07,41,18.20
2012,07,08,07,42,18.20
2012,07,08,07,43,18.20
2012,07,08,07,44,18.20
2012,07,08,07,45,18.20
2012,07,08,07,46,18.10
2012,07,08,07,47,18.10
2012,07,08,07,48,18.10
2012,07,08,07,49,18.20
2012,07,08,07,50,18.20
2012,07,08,07,51,18.20
2012,07,08,07,52,18.20
2012,07,08,07,53,18.20
2012,07,08,07,54,18.20
2012,07,08,07,55,18.20
2012,07,08,07,56,18.20
2012,07,08,07,57,18.20
2012,07,08,07,58,18.20
2012,07,08,07,59,18.20
2012,07,08,08,00,18.20
2012,07,08,08,01,18.30
2012,07,08,08,02,18.30
2012,07,08,08,03,18.30
2012,07,08,08,04,18.30
2012,07,08,08,05,18.30
2012,07,08,08,06,18.30
2012,07,08,08,07,18.40
2012,07,08,08,08,18.40
2012,07,08,08,09,18.40
2012,07,08,08,10,18.50
2012,07,08,08,11,18.40
2012,07,08,08,12,18.50
2012,07,08,08,13,18.50
2012,07,08,08,14,18.40
2012,07,08,08,15,18.40
2012,07,08,08,16,18.40
2012,07,08,08,17,18.40
2012,07,08,08,18,18.50
2012,07,08,08,19,18.50
2012,07,08,08,20,18.50
2012,07,08,08,21,18.60
2012,07,08,08,22,18.70
2012,07,08,08,23,18.80
2012,07,08,08,24,18.90
2012,07,08,08,25,18.90
2012,07,08,08,26,19.00
2012,07,08,08,27,19.10
2012,07,08,08,28,19.10
2012,07,08,08,29,19.10
2012,07,08,08,30,19.10
2012,07,08,08,31,19.10
2012,07,08,08,32,19.10
2012,07,08,08,33,19.10
2012,07,08,08,34,19.10
2012,07,08,08,35,19.10
2012,07,08,08,36,19.10
2012,07,08,08,37,19.10
2012,07,08,08,38,19.10
2012,07,08,08,39,19.10
2012,07,08,08,40,19.10
2012,07,08,08,41,19.10
2012,07,08,08,42,19.10
2012,07,08,08,43,19.10
2012,07,08,08,44,19.10
2012,07,08,08,45,19.10
2012,07,08,08,46,19.10
2012,07,08,08,47,19.10
2012,07,08,08,48,19.20
2012,07,08,08,49,19.30
2012,07,08,08,50,19.30
2012,07,08,08,51,19.30
2012,07,08,08,52,19.30
2012,07,08,08,53,19.30
2012,07,08,08,54,19.40
2012,07,08,08,55,19.40
2012,07,08,08,56,19.50
2012,07,08,08,57,19.50
2012,07,08,08,58,19.50
2012,07,08,08,59,19.50
2012,07,08,09,00,19.50
2012,07,08,09,01,19.60
2012,07,08,09,02,19.60
2012,07,08,09,03,19.60
2012,07,08,09,04,19.70
2012,07,08,09,05,19.70
2012,07,08,09,06,19.70
2012,07,08,09,07,19.80
2012,07,08,09,08,19.80
2012,07,08,09,09,19.90
2012,07,08,09,10,19.90
2012,07,08,09,11,20.00
2012,07,08,09,12,20.10
2012,07,08,09,13,20.20
2012,07,08,09,14,20.20
2012,07,08,09,15,20.20
2012,07,08,09,16,20.20
2012,07,08,09,17,20.10
2012,07,08,09,18,20.10
2012,07,08,09,19,20.00
2012,07,08,09,20,19.90
2012,07,08,09,21,19.90
2012,07,08,09,22,20.10
2012,07,08,09,23,20.10
2012,07,08,09,24,20.10
2012,07,08,09,25,20.10
2012,07,08,09,26,20.10
2012,07,08,09,27,20.00
2012,07,08,09,28,20.00
2012,07,08,09,29,20.10
2012,07,08,09,30,20.00
2012,07,08,09,31,19.90
2012,07,08,09,32,19.90
2012,07,08,09,33,19.90
2012,07,08,09,34,19.90
2012,07,08,09,35,19.90
2012,07,08,09,36,19.90
2012,07,08,09,37,19.90
2012,07,08,09,38,19.90
2012,07,08,09,39,20.00
2012,07,08,09,40,20.10
2012,07,08,09,41,20.10
2012,07,08,09,42,20.10
2012,07,08,09,43,20.10
2012,07,08,09,44,20.10
2012,07,08,09,45,20.10
2012,07,08,09,46,20.10
2012,07,08,09,47,20.10
2012,07,08,09,48,20.20
2012,07,08,09,49,20.20
2012,07,08,09,50,20.20
2012,07,08,09,51,20.20
2012,07,08,09,52,20.30
2012,07,08,09,53,20.30
2012,07,08,09,54,20.20
2012,07,08,09,55,20.20
2012,07,08,09,56,20.20
2012,07,08,09,57,20.20
2012,07,08,09,58,20.30
2012,07,08,09,59,20.40
2012,07,08,10,00,20.50
2012,07,08,10,01,20.50
2012,07,08,10,02,20.50
2012,07,08,10,03,20.50
2012,07,08,10,04,20.60
2012,07,08,10,05,20.60
2012,07,08,10,06,20.60
2012,07,08,10,07,20.70
2012,07,08,10,08,20.70
2012,07,08,10,09,20.80
2012,07,08,10,10,20.90
2012,07,08,10,11,21.00
2012,07,08,10,12,21.00
2012,07,08,10,13,21.00
2012,07,08,10,14,21.10
2012,07,08,10,15,21.00
2012,07,08,10,16,21.00
2012,07,08,10,17,21.00
2012,07,08,10,18,21.00
2012,07,08,10,19,21.00
2012,07,08,10,20,21.00
2012,07,08,10,21,20.90
2012,07,08,10,22,20.90
2012,07,08,10,23,20.90
2012,07,08,10,24,21.00
2012,07,08,10,25,21.00
2012,07,08,10,26,21.00
2012,07,08,10,27,21.00
2012,07,08,10,28,21.10
2012,07,08,10,29,21.20
2012,07,08,10,30,21.30
2012,07,08,10,31,21.30
2012,07,08,10,32,21.30
2012,07,08,10,33,21.30
2012,07,08,10,34,21.30
2012,07,08,10,35,21.30
2012,07,08,10,36,21.30
2012,07,08,10,37,21.30
2012,07,08,10,38,21.30
2012,07,08,10,39,21.30
2012,07,08,10,40,21.30
2012,07,08,10,41,21.20
2012,07,08,10,42,21.10
2012,07,08,10,43,21.10
2012,07,08,10,44,21.10
2012,07,08,10,45,21.10
2012,07,08,10,46,21.10
2012,07,08,10,47,21.20
2012,07,08,10,48,21.20
2012,07,08,10,49,21.30
2012,07,08,10,50,21.40
2012,07,08,10,51,21.50
2012,07,08,10,52,21.60
2012,07,08,10,53,21.70
2012,07,08,10,54,21.80
2012,07,08,10,55,22.00
2012,07,08,10,56,22.00
2012,07,08,10,57,22.00
2012,07,08,10,58,22.20
2012,07,08,10,59,22.20
2012,07,08,11,00,22.30
2012,07,08,11,01,22.40
2012,07,08,11,02,22.30
2012,07,08,11,03,22.30
2012,07,08,11,04,22.20
2012,07,08,11,05,22.10
2012,07,08,11,06,22.10
2012,07,08,11,07,22.10
2012,07,08,11,08,22.10
2012,07,08,11,09,22.10
2012,07,08,11,10,22.10
2012,07,08,11,11,22.10
2012,07,08,11,12,22.10
2012,07,08,11,13,22.00
2012,07,08,11,14,22.00
2012,07,08,11,15,22.00
2012,07,08,11,16,22.00
2012,07,08,11,17,22.10
2012,07,08,11,18,22.10
2012,07,08,11,19,22.20
2012,07,08,11,20,22.30
2012,07,08,11,21,22.30
2012,07,08,11,22,22.40
2012,07,08,11,23,22.40
2012,07,08,11,24,22.50
2012,07,08,11,25,22.50
2012,07,08,11,26,22.60
2012,07,08,11,27,22.60
2012,07,08,11,28,22.70
2012,07,08,11,29,22.80
2012,07,08,11,30,22.90
2012,07,08,11,31,22.90
2012,07,08,11,32,23.00
2012,07,08,11,33,23.10
2012,07,08,11,34,23.10
2012,07,08,11,35,23.20
2012,07,08,11,36,23.20
2012,07,08,11,37,23.20
2012,07,08,11,38,23.20
2012,07,08,11,39,23.20
2012,07,08,11,40,23.10
2012,07,08,11,41,23.10
2012,07,08,11,42,23.10
2012,07,08,11,43,23.20
2012,07,08,11,44,23.30
2012,07,08,11,45,23.30
2012,07,08,11,46,23.30
2012,07,08,11,47,23.30
2012,07,08,11,48,23.30
2012,07,08,11,49,23.30
2012,07,08,11,50,23.20
2012,07,08,11,51,23.20
2012,07,08,11,52,23.10
2012,07,08,11,53,23.20
2012,07,08,11,54,23.20
2012,07,08,11,55,23.20
2012,07,08,11,56,23.30
2012,07,08,11,57,23.30
2012,07,08,11,58,23.30
2012,07,08,11,59,23.40
2012,07,08,12,00,23.50
2012,07,08,12,01,23.40
2012,07,08,12,02,23.60
2012,07,08,12,03,23.60
2012,07,08,12,04,23.60
2012,07,08,12,05,23.70
2012,07,08,12,06,23.70
2012,07,08,12,07,23.70
2012,07,08,12,08,23.70
2012,07,08,12,09,23.70
2012,07,08,12,10,23.60
2012,07,08,12,11,23.50
2012,07,08,12,12,23.40
2012,07,08,12,13,23.40
2012,07,08,12,14,23.30
2012,07,08,12,15,23.30
2012,07,08,12,16,23.30
2012,07,08,12,17,23.30
2012,07,08,12,18,23.30
2012,07,08,12,19,23.30
2012,07,08,12,20,23.30
2012,07,08,12,21,23.30
2012,07,08,12,22,23.30
2012,07,08,12,23,23.20
2012,07,08,12,24,23.20
2012,07,08,12,25,23.10
2012,07,08,12,26,23.10
2012,07,08,12,27,23.00
2012,07,08,12,28,22.90
2012,07,08,12,29,23.00
2012,07,08,12,30,23.10
2012,07,08,12,31,23.20
2012,07,08,12,32,23.20
2012,07,08,12,33,23.20
2012,07,08,12,34,23.20
2012,07,08,12,35,23.20
2012,07,08,12,36,23.30
2012,07,08,12,37,23.30
2012,07,08,12,38,23.40
2012,07,08,12,39,23.50
2012,07,08,12,40,23.60
2012,07,08,12,41,23.70
2012,07,08,12,42,23.70
2012,07,08,12,43,23.70
2012,07,08,12,44,23.70
2012,07,08,12,45,23.70
2012,07,08,12,46,23.70
2012,07,08,12,47,23.60
2012,07,08,12,48,23.60
2012,07,08,12,49,23.40
2012,07,08,12,50,23.50
2012,07,08,12,51,23.60
2012,07,08,12,52,23.70
2012,07,08,12,53,23.80
2012,07,08,12,54,24.00
2012,07,08,12,55,24.10
2012,07,08,12,56,24.10
2012,07,08,12,57,24.10
2012,07,08,12,58,24.20
2012,07,08,12,59,24.20
2012,07,08,13,00,24.20
2012,07,08,13,01,24.10
2012,07,08,13,02,24.10
2012,07,08,13,03,24.10
2012,07,08,13,04,24.10
2012,07,08,13,05,24.00
2012,07,08,13,06,23.90
2012,07,08,13,07,23.80
2012,07,08,13,08,23.70
2012,07,08,13,09,23.70
2012,07,08,13,10,23.70
2012,07,08,13,11,23.70
2012,07,08,13,12,23.70
2012,07,08,13,13,23.70
2012,07,08,13,14,23.70
2012,07,08,13,15,23.80
2012,07,08,13,16,23.80
2012,07,08,13,17,23.90
2012,07,08,13,18,24.00
2012,07,08,13,19,24.10
2012,07,08,13,20,24.10
2012,07,08,13,21,24.10
2012,07,08,13,22,24.10
2012,07,08,13,23,24.10
2012,07,08,13,24,24.10
2012,07,08,13,25,24.10
2012,07,08,13,26,24.10
2012,07,08,13,27,24.20
2012,07,08,13,28,24.20
2012,07,08,13,29,24.30
2012,07,08,13,30,24.30
2012,07,08,13,31,24.20
2012,07,08,13,32,24.20
2012,07,08,13,33,24.20
2012,07,08,13,34,24.20
2012,07,08,13,35,24.20
2012,07,08,13,36,24.20
2012,07,08,13,37,24.30
2012,07,08,13,38,24.30
2012,07,08,13,39,24.30
2012,07,08,13,40,24.30
2012,07,08,13,41,24.30
2012,07,08,13,42,24.40
2012,07,08,13,43,24.50
2012,07,08,13,44,24.60
2012,07,08,13,45,24.70
2012,07,08,13,46,24.70
2012,07,08,13,47,24.80
2012,07,08,13,48,24.80
2012,07,08,13,49,24.80
2012,07,08,13,50,24.90
2012,07,08,13,51,24.90
2012,07,08,13,52,24.90
2012,07,08,13,53,24.90
2012,07,08,13,54,24.90
2012,07,08,13,55,24.90
2012,07,08,13,56,24.90
2012,07,08,13,57,24.80
2012,07,08,13,58,24.90
2012,07,08,13,59,24.90
2012,07,08,14,00,25.00
2012,07,08,14,01,25.10
2012,07,08,14,02,25.20
2012,07,08,14,03,25.30
2012,07,08,14,04,25.30
2012,07,08,14,05,25.20
2012,07,08,14,06,25.10
2012,07,08,14,07,25.20
2012,07,08,14,08,25.20
2012,07,08,14,09,25.30
2012,07,08,14,10,25.40
2012,07,08,14,11,25.40
2012,07,08,14,12,25.50
2012,07,08,14,13,25.60
2012,07,08,14,14,25.60
2012,07,08,14,15,25.50
2012,07,08,14,16,25.40
2012,07,08,14,17,25.40
2012,07,08,14,18,25.30
2012,07,08,14,19,25.30
2012,07,08,14,20,25.30
2012,07,08,14,21,25.40
2012,07,08,14,22,25.40
2012,07,08,14,23,25.40
2012,07,08,14,24,25.50
2012,07,08,14,25,25.50
2012,07,08,14,26,25.50
2012,07,08,14,27,25.40
2012,07,08,14,28,25.40
2012,07,08,14,29,25.30
2012,07,08,14,30,25.40
2012,07,08,14,31,25.40
2012,07,08,14,32,25.50
2012,07,08,14,33,25.50
2012,07,08,14,34,25.50
2012,07,08,14,35,25.60
2012,07,08,14,36,25.60
2012,07,08,14,37,25.60
2012,07,08,14,38,25.60
2012,07,08,14,39,25.70
2012,07,08,14,40,25.80
2012,07,08,14,41,25.80
2012,07,08,14,42,25.90
2012,07,08,14,43,25.90
2012,07,08,14,44,26.00
2012,07,08,14,45,26.00
2012,07,08,14,46,26.00
2012,07,08,14,47,26.00
2012,07,08,14,48,26.00
2012,07,08,14,49,26.00
2012,07,08,14,50,26.00
2012,07,08,14,51,26.00
2012,07,08,14,52,26.10
2012,07,08,14,53,26.10
2012,07,08,14,54,26.10
2012,07,08,14,55,26.10
2012,07,08,14,56,26.00
2012,07,08,14,57,26.00
2012,07,08,14,58,26.00
2012,07,08,14,59,26.10
2012,07,08,15,00,26.10
2012,07,08,15,01,26.10
2012,07,08,15,02,26.20
2012,07,08,15,03,26.20
2012,07,08,15,04,26.20
2012,07,08,15,05,26.30
2012,07,08,15,06,26.50
2012,07,08,15,07,26.60
2012,07,08,15,08,26.60
2012,07,08,15,09,26.60
2012,07,08,15,10,26.60
2012,07,08,15,11,26.60
2012,07,08,15,12,26.60
2012,07,08,15,13,26.50
2012,07,08,15,14,26.40
2012,07,08,15,15,26.30
2012,07,08,15,16,26.30
2012,07,08,15,17,26.30
2012,07,08,15,18,26.40
2012,07,08,15,19,26.40
2012,07,08,15,20,26.50
2012,07,08,15,21,26.60
2012,07,08,15,22,26.60
2012,07,08,15,23,26.60
2012,07,08,15,24,26.80
2012,07,08,15,25,26.80
2012,07,08,15,26,26.90
2012,07,08,15,27,26.90
2012,07,08,15,28,27.00
2012,07,08,15,29,27.10
2012,07,08,15,30,27.00
2012,07,08,15,31,26.90
2012,07,08,15,32,26.80
2012,07,08,15,33,26.80
2012,07,08,15,34,26.80
2012,07,08,15,35,26.80
2012,07,08,15,36,26.70
2012,07,08,15,37,26.70
2012,07,08,15,38,26.70
2012,07,08,15,39,26.70
2012,07,08,15,40,26.80
2012,07,08,15,41,26.80
2012,07,08,15,42,26.80
2012,07,08,15,43,26.80
2012,07,08,15,44,26.90
2012,07,08,15,45,26.90
2012,07,08,15,46,26.90
2012,07,08,15,47,26.90
2012,07,08,15,48,26.90
2012,07,08,15,49,26.80
2012,07,08,15,50,26.80
2012,07,08,15,51,26.70
2012,07,08,15,52,26.70
2012,07,08,15,53,26.80
2012,07,08,15,54,26.80
2012,07,08,15,55,26.90
2012,07,08,15,56,26.90
2012,07,08,15,57,26.90
2012,07,08,15,58,26.80
2012,07,08,15,59,26.80
2012,07,08,16,00,26.80
2012,07,08,16,01,26.80
2012,07,08,16,02,26.90
2012,07,08,16,03,26.90
2012,07,08,16,04,26.80
2012,07,08,16,05,26.90
2012,07,08,16,06,26.90
2012,07,08,16,07,26.90
2012,07,08,16,08,26.80
2012,07,08,16,09,26.80
2012,07,08,16,10,26.70
2012,07,08,16,11,26.80
2012,07,08,16,12,26.80
2012,07,08,16,13,26.90
2012,07,08,16,14,26.90
2012,07,08,16,15,27.10
2012,07,08,16,16,27.10
2012,07,08,16,17,27.20
2012,07,08,16,18,27.20
2012,07,08,16,19,27.20
2012,07,08,16,20,27.20
2012,07,08,16,21,27.20
2012,07,08,16,22,27.30
2012,07,08,16,23,27.30
2012,07,08,16,24,27.30
2012,07,08,16,25,27.30
2012,07,08,16,26,27.30
2012,07,08,16,27,27.30
2012,07,08,16,28,27.40
2012,07,08,16,29,27.40
2012,07,08,16,30,27.50
2012,07,08,16,31,27.60
2012,07,08,16,32,27.60
2012,07,08,16,33,27.60
2012,07,08,16,34,27.50
2012,07,08,16,35,27.40
2012,07,08,16,36,27.40
2012,07,08,16,37,27.40
2012,07,08,16,38,27.40
2012,07,08,16,39,27.40
2012,07,08,16,40,27.40
2012,07,08,16,41,27.50
2012,07,08,16,42,27.60
2012,07,08,16,43,27.60
2012,07,08,16,44,27.50
2012,07,08,16,45,27.40
2012,07,08,16,46,27.40
2012,07,08,16,47,27.40
2012,07,08,16,48,27.40
2012,07,08,16,49,27.40
2012,07,08,16,50,27.40
2012,07,08,16,51,27.50
2012,07,08,16,52,27.60
2012,07,08,16,53,27.60
2012,07,08,16,54,27.70
2012,07,08,16,55,27.70
2012,07,08,16,56,27.70
2012,07,08,16,57,27.70
2012,07,08,16,58,27.70
2012,07,08,16,59,27.70
2012,07,08,17,00,27.60
2012,07,08,17,01,27.60
2012,07,08,17,02,27.60
2012,07,08,17,03,27.60
2012,07,08,17,04,27.60
2012,07,08,17,05,27.40
2012,07,08,17,06,27.40
2012,07,08,17,07,27.40
2012,07,08,17,08,27.40
2012,07,08,17,09,27.50
2012,07,08,17,10,27.60
2012,07,08,17,11,27.60
2012,07,08,17,12,27.60
2012,07,08,17,13,27.60
2012,07,08,17,14,27.60
2012,07,08,17,15,27.60
2012,07,08,17,16,27.70
2012,07,08,17,17,27.70
2012,07,08,17,18,27.70
2012,07,08,17,19,27.70